| time (UTC) | temp F | wind direction | speed MPH | gust MPH | rain 1hr in | rain 24hr in | rain mn in | humidity % | barometer mb |
| 20260509134527 | 60 | 276 | 0.0 | 0.0 | 0.00 | 0.00 | 0.00 | 90 | 1013.6 |
| 20260509133026 | 59 | 276 | 0.0 | 0.0 | 0.00 | 0.00 | 0.00 | 91 | 1013.5 |
| 20260509131525 | 59 | 276 | 0.0 | 0.0 | 0.00 | 0.00 | 0.00 | 91 | 1013.3 |
| 20260509130033 | 59 | 265 | 0.0 | 0.0 | 0.00 | 0.00 | 0.00 | 91 | 1013.1 |
| 20260509124524 | 59 | 234 | 0.0 | 0.0 | 0.00 | 0.00 | 0.00 | 91 | 1013.0 |
| 20260509123024 | 59 | 221 | 0.0 | 0.0 | 0.00 | 0.00 | 0.00 | 91 | 1013.1 |
| 20260509121526 | 59 | 226 | 1.0 | 2.0 | 0.00 | 0.00 | 0.00 | 91 | 1013.1 |
| 20260509120022 | 59 | 125 | 0.0 | 3.0 | 0.00 | 0.00 | 0.00 | 91 | 1013.3 |
| 20260509114521 | 59 | 115 | 0.0 | 1.0 | 0.00 | 0.00 | 0.00 | 91 | 1013.3 |
| 20260509113024 | 59 | 119 | 0.0 | 2.0 | 0.00 | 0.00 | 0.00 | 91 | 1013.2 |
| 20260509111518 | 58 | 107 | 1.0 | 2.0 | 0.00 | 0.00 | 0.00 | 91 | 1013.2 |
| 20260509110017 | 59 | 111 | 2.0 | 3.0 | 0.00 | 0.00 | 0.00 | 91 | 1013.3 |
| 20260509104516 | 58 | 131 | 1.0 | 3.0 | 0.00 | 0.00 | 0.00 | 91 | 1013.3 |
| 20260509103016 | 58 | 119 | 2.0 | 3.0 | 0.00 | 0.00 | 0.00 | 92 | 1013.3 |
| 20260509101522 | 58 | 137 | 2.0 | 4.0 | 0.00 | 0.00 | 0.00 | 92 | 1013.4 |
| 20260509100014 | 58 | 136 | 2.0 | 3.0 | 0.00 | 0.00 | 0.00 | 93 | 1013.4 |
| 20260509094513 | 58 | 223 | 1.0 | 3.0 | 0.00 | 0.00 | 0.00 | 93 | 1013.5 |
| 20260509093012 | 58 | 155 | 1.0 | 3.0 | 0.00 | 0.00 | 0.00 | 93 | 1013.7 |
| 20260509091511 | 58 | 188 | 2.0 | 4.0 | 0.00 | 0.00 | 0.00 | 93 | 1013.7 |
| 20260509090010 | 58 | 178 | 3.0 | 5.0 | 0.00 | 0.00 | 0.00 | 92 | 1013.8 |
| 20260509084506 | 58 | 164 | 2.0 | 4.0 | 0.00 | 0.00 | 0.00 | 92 | 1013.8 |
| 20260509083013 | 59 | 184 | 2.0 | 4.0 | 0.00 | 0.00 | 0.00 | 91 | 1014.0 |
| 20260509081501 | 59 | 194 | 2.0 | 5.0 | 0.00 | 0.00 | 0.00 | 91 | 1014.0 |
| 20260509080100 | 59 | 228 | 3.0 | 6.0 | 0.00 | 0.00 | 0.00 | 90 | 1014.1 |
| 20260509080001 | 59 | 227 | 2.0 | 6.0 | 0.00 | 0.00 | 0.00 | 90 | 1014.2 |
| 20260509074558 | 59 | 252 | 2.0 | 7.0 | 0.00 | 0.00 | 0.00 | 90 | 1014.2 |
| 20260509073056 | 60 | 264 | 2.0 | 5.0 | 0.00 | 0.00 | 0.00 | 90 | 1014.3 |
| 20260509071553 | 60 | 215 | 2.0 | 4.0 | 0.00 | 0.00 | 0.00 | 90 | 1014.2 |
| 20260509070052 | 60 | 234 | 2.0 | 4.0 | 0.00 | 0.00 | 0.00 | 89 | 1014.2 |
| 20260509064552 | 60 | 213 | 1.0 | 3.0 | 0.00 | 0.00 | 0.00 | 89 | 1014.3 |
| 20260509063052 | 60 | 206 | 2.0 | 6.0 | 0.00 | 0.00 | 0.00 | 89 | 1014.4 |
| 20260509061549 | 60 | 259 | 3.0 | 7.0 | 0.00 | 0.00 | 0.00 | 89 | 1014.6 |
| 20260509060105 | 60 | 236 | 4.0 | 8.0 | 0.00 | 0.00 | 0.00 | 89 | 1014.6 |
| 20260509054549 | 60 | 246 | 3.0 | 8.0 | 0.00 | 0.00 | 0.00 | 89 | 1014.6 |
| 20260509053110 | 60 | 248 | 5.0 | 8.0 | 0.00 | 0.00 | 0.00 | 89 | 1014.6 |
| 20260509051552 | 60 | 238 | 2.0 | 6.0 | 0.00 | 0.00 | 0.00 | 89 | 1014.5 |
| 20260509050047 | 60 | 198 | 2.0 | 6.0 | 0.00 | 0.00 | 0.00 | 89 | 1014.4 |
| 20260509044613 | 60 | 205 | 3.0 | 10.0 | 0.00 | 0.00 | 0.00 | 90 | 1014.5 |
| 20260509043113 | 60 | 258 | 6.0 | 10.0 | 0.00 | 0.00 | 0.00 | 89 | 1014.3 |
| 20260509041545 | 60 | 261 | 6.0 | 10.0 | 0.00 | 0.00 | 0.00 | 89 | 1014.2 |
| 20260509040045 | 60 | 247 | 7.0 | 13.0 | 0.00 | 0.00 | 0.00 | 90 | 1013.9 |
| 20260509034545 | 60 | 222 | 7.0 | 11.0 | 0.00 | 0.00 | 0.00 | 89 | 1013.9 |
| 20260509033043 | 60 | 247 | 8.0 | 12.0 | 0.00 | 0.00 | 0.00 | 89 | 1013.7 |
| 20260509031554 | 60 | 246 | 7.0 | 12.0 | 0.00 | 0.00 | 0.00 | 89 | 1013.6 |
| 20260509030101 | 61 | 244 | 8.0 | 12.0 | 0.00 | 0.00 | 0.00 | 89 | 1013.4 |
| 20260509024542 | 61 | 267 | 7.0 | 13.0 | 0.00 | 0.00 | 0.00 | 89 | 1013.2 |
| 20260509023040 | 61 | 251 | 11.0 | 16.0 | 0.00 | 0.00 | 0.00 | 88 | 1013.1 |
| 20260509021540 | 62 | 247 | 9.0 | 16.0 | 0.00 | 0.00 | 0.00 | 87 | 1013.0 |
| 20260509020040 | 62 | 251 | 9.0 | 16.0 | 0.00 | 0.00 | 0.00 | 86 | 1012.9 |
| 20260509014536 | 63 | 247 | 6.0 | 17.0 | 0.00 | 0.00 | 0.00 | 86 | 1012.9 |
| 20260509013034 | 63 | 253 | 8.0 | 16.0 | 0.00 | 0.00 | 0.00 | 85 | 1012.8 |
| 20260509011534 | 64 | 258 | 10.0 | 19.0 | 0.00 | 0.00 | 0.00 | 84 | 1012.8 |
| 20260509010032 | 64 | 225 | 10.0 | 18.0 | 0.00 | 0.00 | 0.00 | 83 | 1012.7 |
| 20260509004546 | 64 | 239 | 10.0 | 17.0 | 0.00 | 0.00 | 0.00 | 83 | 1012.8 |
| 20260509003034 | 64 | 269 | 10.0 | 18.0 | 0.00 | 0.00 | 0.00 | 82 | 1012.9 |
| 20260509001530 | 64 | 224 | 11.0 | 17.0 | 0.00 | 0.00 | 0.00 | 81 | 1013.0 |
| 20260509000025 | 65 | 198 | 9.0 | 16.0 | 0.00 | 0.00 | 0.00 | 81 | 1013.1 |
| 20260508234525 | 65 | 200 | 10.0 | 16.0 | 0.00 | 0.00 | 0.00 | 80 | 1013.1 |
| 20260508233023 | 64 | 219 | 11.0 | 19.0 | 0.00 | 0.00 | 0.00 | 81 | 1013.1 |
| 20260508231520 | 65 | 207 | 11.0 | 16.0 | 0.00 | 0.00 | 0.00 | 80 | 1013.2 |
| 20260508230017 | 66 | 221 | 6.0 | 15.0 | 0.00 | 0.00 | 0.00 | 80 | 1013.5 |
| 20260508224515 | 66 | 232 | 6.0 | 13.0 | 0.00 | 0.00 | 0.00 | 79 | 1013.7 |
| 20260508223034 | 66 | 208 | 5.0 | 10.0 | 0.00 | 0.00 | 0.00 | 80 | 1013.9 |
| 20260508221509 | 66 | 205 | 5.0 | 9.0 | 0.00 | 0.00 | 0.00 | 78 | 1014.2 |
| 20260508220007 | 66 | 191 | 5.0 | 10.0 | 0.00 | 0.00 | 0.00 | 79 | 1014.5 |
| 20260508214504 | 66 | 175 | 5.0 | 10.0 | 0.00 | 0.00 | 0.00 | 78 | 1014.6 |
| 20260508213008 | 65 | 224 | 7.0 | 12.0 | 0.00 | 0.00 | 0.00 | 78 | 1014.8 |
| 20260508211603 | 65 | 161 | 7.0 | 11.0 | 0.00 | 0.00 | 0.00 | 79 | 1015.0 |
| 20260508210101 | 66 | 197 | 4.0 | 8.0 | 0.00 | 0.00 | 0.00 | 78 | 1015.1 |
| 20260508204557 | 66 | 216 | 4.0 | 9.0 | 0.00 | 0.00 | 0.00 | 79 | 1015.2 |
| 20260508203103 | 65 | 166 | 6.0 | 9.0 | 0.00 | 0.00 | 0.00 | 81 | 1015.3 |
| 20260508201559 | 65 | 153 | 5.0 | 9.0 | 0.00 | 0.00 | 0.00 | 81 | 1015.4 |
| 20260508200052 | 65 | 171 | 6.0 | 8.0 | 0.00 | 0.00 | 0.00 | 81 | 1015.5 |
| 20260508194551 | 65 | 181 | 5.0 | 8.0 | 0.00 | 0.00 | 0.00 | 81 | 1015.7 |
| 20260508193049 | 64 | 155 | 5.0 | 6.0 | 0.00 | 0.00 | 0.00 | 83 | 1015.7 |
| 20260508191549 | 64 | 142 | 4.0 | 6.0 | 0.00 | 0.00 | 0.00 | 83 | 1016.0 |
| 20260508190046 | 63 | 155 | 4.0 | 6.0 | 0.00 | 0.00 | 0.00 | 83 | 1016.1 |
| 20260508184546 | 64 | 137 | 3.0 | 5.0 | 0.00 | 0.00 | 0.00 | 83 | 1016.2 |
| 20260508183045 | 63 | 158 | 4.0 | 6.0 | 0.00 | 0.00 | 0.00 | 83 | 1016.3 |
| 20260508181542 | 64 | 166 | 2.0 | 5.0 | 0.00 | 0.00 | 0.00 | 83 | 1016.4 |
| 20260508180040 | 64 | 186 | 2.0 | 5.0 | 0.00 | 0.00 | 0.00 | 83 | 1016.4 |
| 20260508174538 | 63 | 217 | 1.0 | 3.0 | 0.00 | 0.00 | 0.00 | 83 | 1016.4 |
| 20260508173035 | 63 | 204 | 1.0 | 2.0 | 0.00 | 0.00 | 0.00 | 85 | 1016.5 |
| 20260508171534 | 63 | 155 | 1.0 | 3.0 | 0.00 | 0.00 | 0.00 | 86 | 1016.6 |
| 20260508170031 | 62 | 173 | 2.0 | 4.0 | 0.00 | 0.00 | 0.00 | 86 | 1016.5 |
| 20260508164530 | 62 | 140 | 1.0 | 3.0 | 0.00 | 0.00 | 0.00 | 86 | 1016.4 |
| 20260508163034 | 62 | 114 | 3.0 | 7.0 | 0.00 | 0.00 | 0.00 | 85 | 1016.4 |
| 20260508161627 | 62 | 105 | 2.0 | 5.0 | 0.00 | 0.00 | 0.00 | 85 | 1016.4 |
| 20260508160026 | 62 | 88 | 2.0 | 5.0 | 0.00 | 0.00 | 0.00 | 86 | 1016.4 |
| 20260508154524 | 61 | 88 | 2.0 | 7.0 | 0.00 | 0.00 | 0.00 | 87 | 1016.3 |
| 20260508153022 | 61 | 70 | 3.0 | 7.0 | 0.00 | 0.00 | 0.00 | 88 | 1016.3 |
| 20260508151521 | 61 | 76 | 3.0 | 7.0 | 0.00 | 0.00 | 0.00 | 88 | 1016.4 |
| 20260508150040 | 61 | 80 | 3.0 | 6.0 | 0.00 | 0.00 | 0.00 | 89 | 1016.5 |
| 20260508144517 | 61 | 61 | 2.0 | 4.0 | 0.00 | 0.00 | 0.00 | 89 | 1016.4 |
| 20260508143017 | 60 | 70 | 2.0 | 3.0 | 0.00 | 0.00 | 0.00 | 90 | 1016.4 |
| 20260508141519 | 60 | 81 | 1.0 | 4.0 | 0.00 | 0.00 | 0.00 | 90 | 1016.3 |
| 20260508140022 | 60 | 80 | 1.0 | 5.0 | 0.00 | 0.00 | 0.00 | 90 | 1016.2 |